Log in

Login to your account

Username *
Password *
Remember Me
C'est avec un grand plaisir que nous venons de réceptionner à l'Aéroclub de Savoie conjointement avec le CLAP et avec l'aide de la FFA un avion électrique Pipistrel VELIS !!
C'est parti pour des vols silencieux et sans essence !
 
Les vols de découverte et le début de formation sur cet avion novateur sont possibles !
 
 
  dsc9332 edit 11
 
 

Nous contacter

 Téléphone : +33 (0)4 79 54 41 81

Coordonnées détaillées et accès : cliquez ici

facebook 770688 960 720  logo instagram large

[source: ADDS]
METAR / TAF
LFLB 270300Z AUTO 02008KT 340V050 9999 OVC028 02/M03 Q1016 NOSIG =
TAF LFLB 270200Z 2703/2803 36009KT 9999 OVC025

SR / SS: 07:02 / 16:36 UTC (Lever/Coucher du soleil le 2023-01-28)
JSN Boot template designed by JoomlaShine.com